Wind_Speed
30 29 28 28 28 28 28 27 27 26 26 25 24 22 21 21 20 19 19 19 20 20 20 18 16 14 13 11 9 7 7 7 7 7 7 7 9 12 14 17 18 20 20 20 20 19 18 17 16 15 14 12 11 10 9 8 7 6 4 3 2 2 2 2 3 4 5 5 6 7 7 8 9 10 11 12 13 15 16 17 17 17 17 17 17
31 30 29 28 28 28 28 27 28 27 27 27 25 24 23 22 21 21 21 20 20 20 19 17 16 15 14 13 11 9 8 7 6 6 6 6 6 7 10 13 16 19 21 21 20 20 19 19 18 17 17 15 14 13 11 10 9 8 7 6 5 4 4 4 3 3 4 5 5 5 6 6 7 8 9 10 11 13 14 16 17 18 18 18 18
30 29 29 29 28 29 29 29 29 28 28 28 26 25 24 23 23 23 22 21 20 19 18 17 16 15 14 13 13 12 10 9 7 6 5 5 5 5 5 7 11 15 18 20 21 21 21 20 20 19 19 18 17 15 14 13 12 11 9 8 7 7 7 7 6 6 5 6 6 7 7 7 8 8 8 9 11 12 13 14 16 17 18 19 19
29 29 29 28 29 30 30 30 30 30 30 29 27 26 25 24 24 24 23 23 22 20 18 18 17 16 15 13 13 12 11 11 10 8 7 6 6 5 5 6 7 9 12 17 20 22 22 22 21 21 22 21 19 18 17 17 15 14 12 11 10 10 10 10 10 9 9 8 9 10 9 9 10 10 10 11 11 12 12 14 15 16 17 18 19
28 28 28 28 29 29 30 31 32 32 31 30 29 27 26 25 25 24 24 24 23 21 20 19 18 17 15 14 13 12 12 12 12 11 9 9 9 8 8 8 8 8 9 12 16 19 22 22 22 23 24 23 22 21 20 19 18 17 16 15 14 13 14 14 13 13 13 11 11 13 13 12 12 12 13 13 13 13 13 14 15 16 17 17 18
26 27 27 27 27 28 29 31 32 32 32 31 30 29 28 27 26 25 24 24 23 23 22 21 19 18 16 14 14 13 13 14 13 13 12 12 12 12 12 11 11 11 11 11 12 15 17 20 22 24 25 24 23 22 22 21 21 20 20 19 18 17 18 18 18 18 17 15 14 16 16 16 15 15 15 16 16 15 15 16 17 18 18 18 19
23 24 24 24 25 26 28 29 30 31 31 31 30 29 29 28 27 26 24 24 24 23 22 21 20 19 17 16 15 14 14 15 15 14 14 14 14 14 14 14 14 14 14 14 14 14 15 16 18 22 24 25 24 24 24 24 24 23 23 22 22 22 22 21 22 22 22 20 19 18 19 20 20 18 18 19 18 17 18 19 19 19 20 21 20
22 22 23 23 22 22 24 26 27 28 29 29 29 30 29 28 27 26 25 25 24 23 23 21 20 19 18 18 17 16 17 17 16 16 15 15 15 15 15 16 16 17 17 17 17 17 16 16 16 17 19 21 23 24 25 26 26 26 25 25 25 26 25 25 25 26 26 25 24 22 22 23 23 22 22 22 21 20 21 23 22 22 22 23 22
23 23 23 22 19 19 20 22 24 25 27 28 29 29 29 29 28 26 26 26 24 24 23 22 21 20 19 19 19 19 19 19 17 17 16 16 16 16 16 17 18 19 19 20 20 20 20 19 18 17 16 17 19 21 24 25 27 27 27 27 28 28 28 28 28 28 29 29 28 27 26 26 25 25 25 24 23 23 25 26 25 25 25 26 24
24 24 23 21 18 18 19 20 22 23 24 25 26 28 28 28 28 27 27 26 25 24 24 23 22 21 20 20 20 20 20 19 17 16 16 16 16 16 17 17 18 20 21 22 22 22 22 21 20 19 19 18 19 20 21 23 26 27 27 28 30 30 31 31 30 30 31 31 30 30 30 29 27 28 28 27 27 27 28 28 28 28 29 29 27
26 25 24 22 21 20 20 20 21 21 22 23 24 25 26 27 28 27 27 26 25 25 24 24 23 21 21 20 20 20 19 17 16 15 15 15 16 16 16 16 17 19 20 22 22 22 22 22 22 21 21 21 21 21 21 22 24 25 27 28 29 31 32 32 32 32 33 33 33 33 34 32 30 30 30 30 30 30 30 31 32 32 32 32 30
29 28 27 25 24 23 22 21 21 20 21 21 21 23 24 25 26 26 27 26 25 25 24 23 22 21 21 21 20 19 17 15 14 14 13 13 13 13 13 13 14 15 15 17 17 18 19 20 21 22 21 21 22 22 22 23 23 24 25 27 29 30 32 33 33 33 34 35 35 35 35 34 32 32 32 31 32 33 33 34 34 34 35 35 33
30 30 30 29 27 26 25 24 23 22 21 20 21 22 23 24 24 24 24 24 24 24 24 23 22 22 21 20 19 18 16 14 13 12 12 11 11 11 11 11 11 11 11 12 12 13 14 15 17 17 17 18 19 20 22 22 23 24 25 27 28 30 31 32 32 33 34 35 36 36 35 35 34 33 33 34 35 36 36 37 36 36 37 37 36
29 29 30 30 29 28 28 28 27 24 22 21 21 22 23 23 23 23 23 23 23 23 23 23 23 22 21 20 18 17 15 14 13 13 12 11 11 12 12 13 13 13 13 13 13 13 14 15 15 15 15 16 17 18 19 19 21 23 25 27 29 30 31 32 32 32 33 34 36 35 34 35 35 34 34 36 38 37 38 38 39 39 40 39 38
26 25 26 27 28 29 29 30 30 28 26 24 23 23 23 23 23 23 22 22 22 22 22 23 23 22 22 20 19 17 16 14 14 13 13 12 12 14 15 16 17 17 16 16 16 16 16 17 17 17 17 18 18 19 20 20 21 23 24 26 27 29 31 32 32 32 32 34 35 35 34 34 35 35 35 37 39 38 38 39 40 41 42 41 40
24 22 22 23 25 27 29 31 32 32 30 28 27 25 24 23 23 23 23 23 22 22 23 24 24 23 22 21 20 19 17 15 15 14 14 14 15 17 19 20 20 20 20 19 19 19 19 19 20 20 20 21 21 22 23 24 25 26 27 27 28 29 31 31 31 32 32 33 35 35 34 34 36 36 36 37 38 38 39 40 42 43 43 43 42
24 23 22 21 22 23 25 28 31 32 33 32 31 29 26 24 24 24 24 24 23 23 23 24 24 23 23 22 21 20 18 17 17 17 17 18 19 21 21 22 22 22 21 21 22 22 22 22 23 23 24 24 25 26 26 27 28 29 29 30 30 32 32 32 32 33 32 32 33 34 34 35 37 38 38 38 38 37 39 43 44 43 44 45 44
25 24 24 23 21 20 20 22 25 28 31 32 33 33 31 29 26 26 26 25 24 23 23 24 24 24 24 23 23 22 21 20 21 21 21 22 23 24 24 24 24 24 23 23 23 24 24 25 25 26 27 27 28 29 30 31 31 31 31 31 32 32 33 33 35 34 33 34 35 36 36 36 37 39 40 40 40 39 42 45 44 43 45 47 46
26 25 24 23 21 20 20 20 20 22 25 28 31 33 33 33 31 30 28 28 27 26 25 26 26 26 26 25 25 25 24 24 24 25 25 25 25 26 26 27 26 25 25 25 25 26 26 26 27 28 28 29 30 31 31 32 33 33 33 34 33 32 32 35 36 36 36 37 38 39 39 39 39 40 41 42 43 44 46 47 46 46 48 48 46
24 23 21 20 18 18 20 21 19 19 19 21 24 26 28 31 33 34 34 32 31 30 29 29 29 29 29 28 28 28 28 28 28 28 28 28 27 28 28 28 27 27 27 27 27 28 29 29 30 30 30 31 31 32 32 33 34 34 34 36 35 33 34 37 38 38 39 40 41 41 42 42 43 43 43 44 45 46 48 48 48 49 50 50 49
23 20 19 17 16 17 18 20 20 19 17 17 19 21 22 25 28 33 35 36 36 35 33 32 31 31 31 31 31 30 30 30 30 30 30 30 29 29 30 29 29 29 29 30 30 31 32 32 33 33 33 34 34 34 34 35 36 36 37 38 37 36 38 40 40 39 41 42 43 44 44 44 44 45 46 47 48 48 49 49 49 50 51 53 53
22 21 19 18 16 16 17 18 20 20 19 18 19 20 21 22 24 27 31 36 38 38 36 35 34 33 32 32 32 32 32 32 32 32 32 31 31 32 31 31 31 32 31 31 32 33 34 34 35 35 36 36 36 36 36 35 36 36 37 38 39 38 39 41 41 41 42 43 45 47 46 45 46 47 47 48 48 48 49 50 50 52 53 54 54
23 21 20 18 18 17 17 17 19 20 20 20 21 22 22 23 24 25 28 32 35 37 37 37 36 35 34 34 34 34 34 34 34 33 33 33 33 34 33 33 34 34 34 34 35 36 36 36 37 37 37 36 36 36 35 35 35 35 36 37 38 38 40 42 42 43 44 45 48 48 47 46 48 49 49 48 47 46 47 49 51 53 55 56 56
24 23 21 20 19 18 17 17 17 18 19 20 21 23 24 24 24 25 27 29 32 33 35 36 37 36 36 35 35 36 36 36 35 35 35 35 36 36 36 36 37 37 37 36 37 38 38 37 37 36 36 37 36 36 35 34 35 34 34 35 36 37 39 41 42 43 45 47 50 51 50 48 49 50 49 47 46 46 47 49 51 54 57 59 59
24 23 23 22 22 21 20 19 18 18 19 19 20 22 24 25 26 26 27 28 29 31 32 34 36 37 37 37 37 37 38 38 37 36 36 37 37 37 38 38 39 39 39 38 38 38 38 37 37 36 36 37 36 35 34 35 35 34 33 33 33 34 36 38 40 42 45 48 51 53 53 51 51 52 51 48 48 49 50 51 54 58 62 65 63
25 25 24 24 24 24 24 23 22 21 20 20 20 20 22 24 27 28 28 28 29 31 32 34 35 36 37 37 38 38 39 38 38 37 37 37 37 38 38 39 39 40 39 39 39 38 38 37 37 36 35 35 34 34 35 36 36 35 34 34 33 34 35 37 40 43 46 50 53 56 57 56 55 57 57 54 52 52 53 54 56 59 63 66 65
28 27 27 27 26 26 27 26 26 24 24 23 23 22 22 23 25 27 28 30 31 32 34 35 35 35 36 36 37 38 38 37 37 36 36 37 37 37 38 38 39 39 39 38 38 38 37 36 35 33 33 33 34 35 36 36 36 34 34 34 34 35 37 39 42 45 48 52 55 57 58 57 57 61 63 60 57 56 55 56 58 59 61 63 63
32 30 30 30 29 29 28 28 28 29 28 27 27 26 25 24 25 25 27 31 34 35 36 36 35 35 35 35 36 37 37 37 37 36 36 36 36 36 36 37 37 37 37 36 36 35 34 34 34 34 34 34 34 34 34 34 34 33 33 34 35 37 39 41 44 47 50 53 56 57 58 57 58 62 65 63 60 58 57 58 60 61 62 63 63
34 33 32 31 31 31 30 30 31 32 32 31 30 30 28 27 26 25 25 27 31 34 36 36 36 36 36 36 37 37 37 37 36 36 35 35 35 34 35 35 34 34 34 33 33 33 33 33 33 33 33 32 32 32 33 34 35 36 37 38 38 39 41 43 46 49 52 54 56 57 59 59 59 62 65 66 64 62 59 59 60 61 63 65 66
34 34 34 33 33 32 32 32 32 33 34 33 33 33 31 29 28 27 26 26 27 29 32 34 35 35 36 36 37 36 36 35 35 34 33 32 32 32 32 32 31 31 31 31 31 31 31 31 30 29 30 31 32 33 34 36 37 38 39 41 42 43 44 45 47 50 53 55 57 59 60 61 61 62 65 67 66 63 61 59 59 60 63 65 65
31 33 33 33 32 32 31 31 32 32 33 34 34 34 34 32 30 29 29 28 27 27 27 29 30 32 33 33 34 34 33 33 32 31 30 30 29 29 28 28 27 28 28 28 28 27 27 27 27 28 30 31 33 34 36 37 39 41 42 43 44 45 46 47 49 52 55 57 59 60 62 63 63 62 64 66 66 64 61 59 59 60 63 64 65
28 30 31 31 30 30 29 29 29 29 30 31 32 34 34 34 32 31 30 29 28 25 24 25 26 27 28 28 28 28 28 27 26 25 25 25 24 24 24 24 24 25 25 25 25 25 26 27 28 30 31 33 35 36 38 40 42 43 45 47 47 47 48 49 51 54 56 58 60 61 63 64 64 63 63 64 65 65 63 61 61 62 63 65 66
26 26 28 29 29 29 28 27 26 26 26 27 29 30 31 31 31 30 29 28 27 25 23 23 24 24 24 23 23 22 21 21 21 21 21 22 22 22 23 23 23 23 24 24 25 26 28 29 30 31 33 34 36 38 39 41 43 45 47 49 49 50 51 51 53 55 57 58 61 62 63 64 64 64 64 63 64 65 65 64 64 65 65 66 67
26 25 25 27 28 28 27 26 25 24 24 25 26 27 27 28 28 27 26 25 23 22 22 22 23 23 22 21 21 21 20 20 21 21 22 23 23 22 23 23 23 24 24 25 26 27 28 30 31 32 34 35 37 39 41 42 44 46 48 49 51 52 53 54 55 56 57 58 60 61 62 63 63 64 64 63 62 64 65 65 66 67 68 69 68
26 26 25 26 26 27 27 26 24 23 23 23 23 24 24 23 23 22 21 19 19 19 18 18 18 19 20 20 21 22 22 23 22 22 23 22 22 22 22 23 23 24 24 25 26 27 28 30 31 33 35 36 38 40 41 43 45 46 48 50 51 52 53 54 55 55 55 56 58 59 61 62 63 64 64 63 62 63 64 65 67 69 68 66 64
24 25 25 25 25 26 27 26 25 23 22 21 21 21 20 20 19 19 19 19 19 18 17 17 17 17 18 19 20 21 22 22 22 22 22 22 22 23 23 23 23 24 24 25 26 27 29 31 32 34 36 37 38 40 42 43 45 46 47 48 49 50 51 52 52 53 53 53 53 55 55 56 57 57 57 58 58 58 60 63 67 66 59 54 55
22 22 23 23 24 24 25 25 24 22 21 20 18 17 17 17 18 19 20 19 20 20 20 19 20 20 20 20 20 21 21 21 21 22 23 23 23 23 23 23 23 24 24 26 27 29 31 32 33 35 36 37 39 41 42 43 44 44 45 46 47 49 50 50 51 51 51 50 50 50 50 49 47 45 45 46 47 48 50 54 57 55 48 45 49
21 21 22 22 22 22 21 21 21 20 18 17 16 16 16 17 18 19 20 21 22 23 23 22 22 23 23 22 21 22 22 22 23 24 23 23 23 23 23 23 24 24 25 27 28 30 31 32 34 35 37 38 39 40 41 42 42 43 44 45 46 47 48 49 50 50 50 51 51 49 46 43 41 40 42 42 42 42 42 42 43 43 42 43 47
22 23 23 23 23 22 21 21 21 21 20 21 21 21 21 21 22 23 24 24 25 25 25 25 26 27 26 24 23 23 24 24 24 24 23 23 23 23 23 23 24 25 26 27 28 30 31 33 35 36 37 38 38 39 39 40 40 41 42 43 44 45 46 48 50 51 51 52 50 47 42 39 38 40 42 42 40 40 39 38 36 35 37 40 43
23 23 24 24 24 24 24 24 24 25 26 26 27 27 26 26 26 27 26 27 27 28 28 28 28 28 27 27 26 26 25 24 24 23 23 23 23 23 23 24 25 26 26 27 29 30 32 34 36 36 37 37 37 37 38 38 38 39 39 40 41 43 44 46 48 49 49 48 46 44 42 40 40 41 42 41 38 37 37 36 33 32 33 36 37
24 24 24 25 25 26 26 26 26 26 27 28 29 29 29 29 30 30 29 29 29 30 30 30 30 30 29 28 27 26 24 23 22 22 22 23 23 24 25 25 25 26 27 28 30 32 33 35 35 35 35 35 35 35 35 35 35 36 36 37 39 40 41 42 43 44 44 44 44 44 44 44 44 44 43 40 36 34 32 31 29 28 29 30 30
25 25 26 26 26 26 26 27 27 27 27 28 28 29 30 30 30 30 30 31 31 31 32 31 30 28 26 24 23 22 21 21 21 22 22 23 24 25 25 25 26 27 28 30 31 32 33 33 33 33 33 32 32 32 32 32 32 33 34 35 36 37 38 38 38 39 41 42 43 44 44 44 44 44 43 42 40 38 38 36 32 27 23 20 22
24 25 25 26 26 26 26 27 28 29 29 29 29 29 29 29 30 31 31 31 31 30 28 26 24 22 21 20 20 20 20 21 22 22 23 23 24 25 26 27 28 28 29 30 31 31 31 31 30 30 30 30 30 30 29 30 30 31 32 32 33 33 33 33 32 33 35 36 38 39 39 39 37 38 40 43 44 43 42 40 37 32 26 19 19
21 21 22 23 24 25 25 26 27 29 30 31 31 30 30 30 30 30 29 28 27 25 23 21 20 20 20 21 22 22 22 22 22 22 22 23 24 26 27 28 29 29 29 29 30 30 29 28 28 27 27 27 28 27 27 28 28 29 29 29 29 28 27 27 26 26 27 28 29 31 31 30 29 29 31 34 36 37 35 32 29 25 20 13 10
17 17 18 19 20 22 23 24 25 26 28 29 29 29 29 28 27 26 24 24 23 23 22 21 21 21 22 22 23 22 23 23 23 23 24 25 26 26 27 28 29 29 29 28 28 27 26 26 25 25 24 25 25 26 25 25 26 26 26 26 25 24 22 22 22 22 22 23 25 26 26 25 23 21 22 24 25 24 23 21 18 15 10 6 1
14 14 14 15 17 20 21 22 22 23 23 24 24 24 24 23 23 22 22 22 22 22 22 23 23 23 23 24 24 24 24 24 25 26 26 26 27 27 27 28 28 28 28 27 27 26 25 24 24 23 23 23 23 23 24 24 24 24 24 25 24 23 21 21 20 20 21 22 23 24 24 24 23 20 18 17 16 14 12 10 9 7 5 3 1
15 14 14 14 15 16 18 19 19 19 19 20 20 21 21 21 22 22 22 22 23 23 24 25 25 25 24 24 24 25 26 26 27 28 29 30 30 29 28 27 27 26 26 26 26 25 24 23 23 23 23 22 22 22 22 22 22 22 23 23 23 22 21 20 19 19 20 20 21 21 21 21 22 22 20 19 16 13 10 8 7 8 9 9 10
14 15 16 14 13 14 16 17 18 18 18 19 19 20 21 21 21 21 22 22 23 23 23 24 24 25 25 25 26 27 28 29 30 30 31 31 31 30 29 28 27 26 26 25 26 25 24 23 23 23 23 23 22 22 21 21 21 22 22 22 21 21 20 19 18 18 18 18 18 18 17 17 18 18 19 19 19 18 15 13 10 9 10 11 12
13 14 15 14 13 14 15 17 17 18 18 19 19 21 21 21 21 21 22 22 23 23 24 24 25 26 27 27 28 29 30 30 31 30 30 30 29 29 29 29 29 28 27 26 26 25 25 24 23 23 23 23 23 22 22 22 22 22 21 21 21 21 21 20 19 18 18 17 16 16 16 16 16 15 15 16 16 16 16 15 14 13 12 10 9
17 16 16 15 15 15 16 17 18 18 19 19 20 21 22 22 23 23 23 24 25 26 26 27 28 28 29 29 29 29 29 29 29 28 28 27 27 27 27 28 29 29 29 28 27 26 25 25 24 23 23 23 23 23 23 23 23 22 22 22 21 20 20 19 19 19 19 18 17 16 15 15 15 14 13 13 13 13 14 13 12 11 11 10 9
19 19 18 17 17 17 18 18 19 20 20 20 21 22 23 24 25 25 26 26 27 27 27 28 28 28 28 27 27 27 26 26 26 26 25 25 25 26 26 26 26 27 28 28 28 28 27 25 24 23 22 22 23 23 24 24 24 24 24 24 22 21 20 20 20 19 19 19 19 18 18 18 16 14 12 12 12 12 12 12 10 9 8 7 5
Wind_Direction
197 197 199 203 206 209 211 211 213 214 216 218 219 219 219 219 219 221 221 218 214 213 212 211 210 208 207 209 210 208 200 196 199 202 204 204 204 205 209 212 213 213 215 216 217 218 219 221 222 225 227 227 223 219 214 213 213 215 227 255 291 318 338 356 358 355 358 1 2 360 358 357 354 351 350 348 347 349 348 347 346 345 343 339 334
199 197 199 202 204 208 210 211 214 215 216 217 216 217 218 218 219 220 222 222 219 216 214 212 211 209 208 207 209 213 212 207 202 195 192 197 203 206 209 211 212 215 218 220 222 223 225 226 228 230 233 233 233 233 230 227 227 224 225 236 255 276 290 300 305 313 325 330 336 342 341 343 343 339 337 336 336 337 338 338 339 339 339 337 334
204 201 200 201 203 206 208 210 213 215 216 217 216 216 217 218 220 221 221 223 223 220 217 215 215 214 210 207 208 212 216 220 221 212 201 201 205 213 217 214 213 215 219 222 225 228 229 231 232 235 238 237 237 239 241 240 240 238 237 241 248 262 273 279 282 285 292 299 307 314 316 321 325 325 325 324 323 324 326 328 330 332 333 333 333
207 206 203 202 204 206 208 210 212 214 215 216 216 217 218 219 221 222 222 223 224 224 222 220 220 219 217 214 212 213 215 220 226 226 222 222 222 226 234 235 226 220 219 221 225 228 231 233 235 239 242 243 242 243 245 248 250 249 248 250 253 259 266 269 274 276 275 279 289 295 298 304 309 310 313 314 314 315 316 317 319 322 324 326 328
208 208 206 205 206 207 210 212 213 214 215 216 216 217 219 221 223 224 224 224 225 225 226 226 225 223 221 220 219 219 221 224 228 230 230 232 234 237 242 245 247 241 231 226 227 230 233 234 236 239 243 246 247 248 249 252 255 256 255 255 257 260 264 267 269 271 272 272 278 284 288 292 296 300 303 305 306 308 310 309 309 311 314 316 320
207 208 206 206 207 210 212 214 216 217 217 217 217 218 220 222 224 226 226 226 226 226 228 229 229 229 227 227 226 225 227 229 232 234 236 238 240 243 247 249 251 252 249 243 237 235 235 235 236 239 243 246 249 252 255 256 258 260 261 261 261 261 263 266 269 271 272 272 273 277 282 286 288 290 295 298 299 304 308 307 305 307 310 311 313
207 206 204 203 205 210 214 217 219 220 220 219 219 219 221 222 224 226 227 228 228 227 228 229 231 234 235 235 234 234 235 237 237 237 239 242 244 247 250 251 253 254 255 254 250 245 240 238 237 240 243 246 249 252 255 258 260 262 264 265 265 264 264 265 268 270 271 272 272 274 278 282 283 285 289 292 294 300 305 303 303 306 308 308 309
210 210 206 203 202 206 213 218 221 222 222 222 221 220 221 222 223 225 226 228 228 228 229 229 232 235 238 241 242 242 243 243 241 241 242 244 246 248 251 253 254 254 254 255 255 253 250 246 244 244 246 248 250 251 253 256 258 260 263 265 266 267 267 267 267 269 271 272 272 272 274 276 279 282 285 287 291 299 301 298 299 304 304 303 306
214 216 214 208 202 203 210 217 221 223 223 223 222 222 222 222 223 223 225 227 228 229 230 231 233 236 238 242 245 246 247 245 245 246 248 250 253 254 255 255 255 254 253 253 253 254 254 254 252 251 251 251 252 253 253 255 256 258 260 263 265 267 268 268 268 269 271 272 273 274 273 273 275 278 280 284 289 293 294 293 296 299 297 297 301
217 220 220 215 208 207 211 216 221 222 223 223 223 223 223 223 223 223 224 225 226 228 230 231 234 236 238 240 242 244 245 247 249 253 256 260 262 262 260 257 255 254 253 251 250 251 253 255 256 255 255 254 252 253 254 255 257 258 259 260 262 265 266 267 269 269 271 272 273 274 273 273 274 276 278 281 284 286 287 290 293 292 291 292 296
219 223 223 219 215 213 212 216 221 223 224 224 223 224 225 225 225 225 225 224 224 227 230 232 234 235 236 236 238 239 242 245 250 255 258 261 263 263 261 257 254 252 252 252 252 253 254 255 257 257 257 257 257 257 258 259 260 261 262 262 263 264 265 266 268 269 270 272 274 274 274 276 277 276 276 278 279 281 283 284 285 285 286 288 291
218 221 222 222 219 217 215 216 219 222 223 224 223 223 224 226 227 227 226 225 225 226 229 231 232 232 232 231 232 234 236 241 246 248 249 250 253 256 255 253 250 250 253 256 258 259 260 261 262 262 263 264 264 264 264 264 265 267 267 268 268 267 267 268 269 270 271 273 274 274 275 278 279 278 278 279 279 279 279 278 279 281 283 285 288
217 219 220 222 222 220 218 218 219 220 221 223 224 223 223 226 228 228 227 227 227 226 227 228 228 228 227 226 226 228 230 232 234 234 234 235 240 247 252 255 256 257 259 263 265 266 267 268 269 269 271 270 269 269 269 268 269 269 270 270 271 271 271 271 271 272 272 273 274 275 278 279 279 279 280 279 277 276 277 277 279 279 280 281 284
217 218 219 220 222 222 221 221 221 220 220 221 223 224 224 226 228 229 229 228 227 225 223 223 224 224 223 223 223 223 222 221 221 222 225 229 237 248 258 264 265 266 268 270 273 274 276 277 277 279 280 279 278 277 276 275 273 271 270 270 271 272 273 273 273 274 275 275 276 276 278 278 278 279 278 276 275 275 276 277 278 278 278 278 279
218 219 218 218 220 221 222 223 223 222 221 221 222 223 225 226 228 230 230 228 227 224 220 221 222 222 224 225 225 224 221 221 223 226 229 236 244 253 259 263 265 267 270 272 274 275 275 276 278 279 281 281 282 282 282 282 279 276 274 272 272 273 272 273 274 274 274 275 276 277 278 278 278 278 276 275 275 275 275 275 275 275 275 275 276
220 222 222 220 218 218 221 223 224 224 223 222 223 223 224 225 226 228 230 229 227 223 219 218 219 221 225 229 232 232 230 230 233 237 241 247 255 259 262 265 266 267 269 270 271 271 271 273 275 277 278 278 280 281 282 281 281 280 279 278 278 276 275 275 276 275 275 276 277 277 277 277 276 276 275 275 275 275 276 274 273 272 274 275 276
221 224 227 227 223 218 217 219 222 224 224 225 225 224 224 224 225 227 229 229 228 224 220 219 221 224 227 232 237 241 242 244 247 249 253 257 260 263 265 266 267 267 267 268 269 270 270 272 274 276 278 279 280 280 280 280 280 281 281 281 281 279 276 276 276 277 279 279 279 277 275 273 273 273 272 272 273 274 273 272 272 273 274 274 274
223 226 229 233 233 227 220 216 216 220 223 226 227 227 226 225 225 226 229 230 230 229 228 228 229 231 233 236 241 246 251 254 257 259 261 263 265 265 266 266 265 265 267 269 271 272 274 276 278 279 281 282 282 282 282 282 283 284 284 283 282 280 279 279 279 279 280 278 276 275 273 272 271 271 270 270 269 268 268 269 271 272 271 271 272
227 231 235 239 239 234 229 224 218 217 218 221 226 228 229 228 227 228 229 231 232 233 234 235 236 237 239 242 245 248 252 256 260 263 266 268 270 270 271 270 270 271 273 274 275 276 277 278 279 281 283 284 285 286 286 287 288 288 287 285 284 283 283 282 282 280 278 275 273 272 272 272 270 270 270 270 268 267 267 267 268 268 268 270 271
230 233 237 241 240 234 229 227 227 225 220 218 221 225 228 229 230 230 231 232 234 235 236 238 239 240 243 245 247 249 252 256 259 263 266 268 270 272 273 275 277 280 282 282 283 283 283 283 284 285 286 287 288 289 290 290 291 290 289 289 290 289 286 282 281 280 278 277 276 274 273 272 271 270 270 270 270 270 270 270 270 270 271 272 271
227 228 230 233 235 234 229 226 228 230 229 226 223 220 222 225 227 229 231 232 234 235 237 239 241 242 244 246 248 250 253 257 260 262 265 267 269 271 273 275 278 282 283 284 285 287 288 289 291 292 292 293 293 293 294 295 295 294 294 295 295 293 287 283 282 281 279 279 279 277 276 276 275 274 273 272 271 272 273 274 274 274 274 275 274
231 231 232 232 234 236 234 231 232 233 233 231 225 219 219 220 222 225 227 230 233 234 236 238 240 243 245 247 249 252 255 258 260 262 265 267 269 271 273 276 278 280 281 282 283 285 287 289 291 292 293 293 294 294 295 295 294 294 296 296 295 293 289 286 285 282 280 279 279 278 279 279 279 279 279 279 278 279 279 279 278 277 277 276 276
233 235 236 238 239 241 240 239 239 238 236 233 227 223 221 220 220 222 224 227 231 233 235 238 240 243 245 247 250 253 256 258 260 262 265 267 270 272 274 276 278 278 279 281 283 285 287 288 290 291 292 293 293 294 294 292 291 292 293 293 291 290 288 287 286 286 285 284 283 283 284 284 283 283 284 285 285 285 285 284 282 280 278 275 275
230 231 233 237 240 243 244 245 247 246 244 240 234 229 225 222 221 220 222 225 229 232 235 237 239 242 245 248 250 253 256 258 260 263 265 267 269 271 273 275 277 278 280 281 283 285 287 289 290 291 292 292 293 293 292 291 290 290 291 290 289 287 286 286 287 287 287 287 287 287 288 288 287 287 287 287 287 286 286 285 283 283 281 278 278
233 234 236 238 241 244 246 247 249 250 251 250 245 238 233 230 224 219 219 222 226 230 233 235 238 241 244 247 250 253 255 258 260 262 264 267 270 272 274 276 277 278 280 282 283 285 287 288 289 290 291 291 291 289 289 289 289 290 291 290 289 287 286 286 286 287 287 287 288 290 290 290 289 288 288 287 286 286 285 284 283 284 284 283 283
236 239 242 244 246 249 251 251 251 252 253 255 254 250 245 240 233 226 221 221 224 229 232 234 237 240 242 246 249 252 255 257 260 263 266 268 271 273 274 276 277 279 281 283 284 286 287 289 289 289 288 287 286 286 287 287 288 290 292 292 291 289 288 287 287 287 288 290 291 291 291 290 289 288 287 287 287 286 285 285 284 283 284 286 286
235 237 240 244 247 250 253 256 256 256 255 255 256 256 254 251 246 237 229 225 226 229 232 234 237 239 242 245 248 251 255 257 260 263 266 268 270 272 274 276 278 280 282 283 284 285 286 286 285 283 281 279 279 281 282 284 286 288 290 291 290 290 289 289 288 288 289 290 290 290 290 289 288 288 287 288 288 286 285 286 286 284 284 285 285
235 236 238 242 244 247 250 253 255 256 256 256 256 256 257 258 256 249 238 231 230 232 234 236 238 240 243 246 248 251 254 256 259 262 264 267 269 272 274 275 276 278 279 280 281 282 282 281 280 279 279 279 280 282 284 286 288 289 290 289 288 288 288 287 287 288 289 289 288 288 289 288 287 286 286 286 286 284 283 283 283 282 282 282 281
237 237 238 241 243 245 247 249 249 251 253 254 255 257 258 260 260 257 249 241 237 237 238 239 240 241 244 246 249 252 255 257 259 261 263 265 267 269 270 271 272 274 276 277 278 278 277 278 279 281 283 285 287 289 290 291 293 293 294 293 292 290 289 287 287 288 288 287 287 287 287 286 285 285 286 286 286 286 286 285 284 283 282 279 278
238 238 239 241 243 245 247 247 248 249 250 251 252 254 257 259 259 259 257 252 249 246 245 245 245 245 247 249 251 253 256 258 260 261 263 264 265 266 267 269 270 272 273 274 275 276 278 281 283 286 288 290 291 293 294 295 295 295 295 293 292 291 289 288 288 289 288 287 287 287 286 286 285 286 287 287 287 288 287 287 285 282 280 278 276
238 238 239 241 243 244 245 246 248 250 251 251 251 251 253 256 257 258 259 258 256 253 251 250 249 248 249 250 252 254 255 257 259 261 263 264 265 266 267 268 269 270 272 273 276 280 283 285 287 289 290 292 293 294 295 296 295 295 294 293 292 292 291 291 291 291 290 289 289 288 288 288 288 289 289 290 290 290 289 287 285 282 280 279 277
238 238 240 241 242 243 243 245 248 250 252 252 252 251 252 253 255 256 257 257 257 254 251 249 248 247 248 250 252 254 255 256 258 258 260 262 264 265 267 268 269 272 274 276 280 283 285 287 289 290 292 293 295 295 296 296 295 295 296 296 295 294 293 292 291 291 291 291 291 290 291 291 292 293 293 293 293 293 292 290 287 284 282 281 279
239 239 241 242 243 244 244 246 248 250 252 252 252 251 251 253 255 256 255 254 254 252 247 244 243 244 245 246 249 252 253 253 253 254 256 258 260 261 264 266 270 273 276 279 282 285 287 289 290 292 293 294 295 295 295 295 296 296 296 296 296 295 295 294 294 293 293 293 293 294 295 296 296 296 296 295 295 294 293 291 289 287 285 283 281
241 241 241 242 243 244 245 246 248 249 250 250 250 249 249 248 249 249 248 246 246 246 244 240 239 241 241 241 243 246 248 249 249 251 253 256 259 262 265 268 271 275 278 281 283 285 287 288 289 291 292 294 295 295 295 296 297 297 297 298 298 298 298 297 296 296 296 296 297 298 299 299 299 298 297 297 296 295 293 292 290 287 284 282 280
243 243 243 243 243 243 244 245 246 246 246 246 247 247 246 244 242 242 242 241 241 243 244 243 241 240 240 240 240 242 244 247 250 252 255 259 263 266 268 270 273 276 279 281 283 284 286 288 290 292 293 294 296 297 298 298 299 299 299 298 298 297 297 297 296 297 298 299 299 300 300 300 300 299 298 298 297 295 293 290 287 283 280 277 275
243 243 243 243 242 242 242 242 242 242 242 242 244 244 240 235 235 238 240 240 242 245 247 248 246 244 242 243 244 245 247 250 253 256 259 263 265 267 269 271 274 277 280 282 284 286 288 290 292 293 295 297 298 299 299 299 298 298 297 297 297 297 297 297 297 298 299 300 300 300 301 300 300 300 299 298 295 292 288 284 281 279 276 274 274
241 242 242 242 241 240 239 240 240 240 239 239 240 241 236 229 229 235 240 241 243 245 244 245 248 250 249 249 251 252 253 254 256 258 260 261 264 267 270 273 276 279 282 285 287 289 290 292 294 296 297 298 298 297 297 298 297 297 297 297 297 298 298 298 299 300 300 301 301 301 301 301 301 303 305 304 300 294 289 284 282 279 274 271 273
241 239 239 239 238 235 232 232 234 235 236 235 233 234 234 231 228 232 235 237 240 244 246 246 249 253 255 255 254 254 255 256 256 257 258 261 265 269 272 276 279 282 284 286 288 289 291 293 295 295 296 296 296 297 298 298 298 298 298 298 299 299 300 301 302 302 302 302 302 303 303 304 305 308 313 315 313 308 300 294 289 283 274 266 264
243 240 238 238 237 234 228 226 225 225 227 229 229 228 230 229 227 229 232 233 236 240 244 246 248 252 255 256 255 255 255 256 258 261 264 267 271 274 276 278 280 282 284 286 288 289 291 293 294 295 296 297 298 299 299 299 299 299 300 302 302 303 304 305 304 304 304 303 303 304 307 309 312 318 324 328 326 319 311 302 293 286 277 268 262
241 239 237 237 238 238 235 232 228 223 221 222 225 227 229 228 226 228 230 233 236 239 243 245 248 251 253 254 253 254 255 257 261 265 267 270 271 273 275 278 280 282 284 286 287 289 292 294 296 297 298 299 299 300 300 301 303 305 307 308 309 309 309 309 309 308 308 308 309 311 314 318 322 329 335 340 339 332 321 307 293 286 283 275 267
239 236 234 235 237 239 240 239 238 233 229 226 227 230 232 232 230 230 231 233 237 241 244 246 248 249 250 252 254 257 260 262 265 267 268 270 272 274 276 278 279 281 283 285 289 293 295 297 298 298 299 300 301 302 304 307 309 312 314 315 315 315 314 314 314 315 316 318 319 322 325 328 331 335 340 345 348 347 339 325 305 290 283 275 269
236 234 233 233 234 237 239 241 242 242 240 238 238 239 240 240 240 239 239 239 241 244 246 248 250 252 255 259 263 266 269 269 269 268 268 270 272 273 274 276 278 281 286 290 294 296 296 296 296 297 299 302 304 306 310 313 316 319 320 320 321 320 320 320 321 321 322 324 326 328 332 334 337 341 347 353 357 359 358 353 339 319 299 282 272
235 234 233 233 234 234 234 236 238 240 241 243 244 244 244 244 244 245 245 245 246 247 250 252 255 257 259 261 261 262 262 261 261 262 263 265 268 270 273 277 281 286 291 293 293 292 291 292 295 298 301 305 308 311 316 319 321 324 326 326 326 326 326 326 326 325 326 328 331 335 337 339 341 347 354 360 3 3 4 3 355 340 324 300 270
238 236 236 236 236 234 232 231 232 235 237 239 241 242 243 243 244 245 245 245 246 247 248 249 250 251 252 254 255 256 256 256 256 258 260 264 267 272 277 282 286 289 290 289 287 287 288 291 295 299 303 306 310 314 319 322 324 327 328 329 329 330 331 332 331 332 336 341 345 348 348 346 344 345 349 355 1 4 6 8 4 354 341 317 270
243 241 242 243 241 237 234 231 230 231 233 235 237 238 240 241 243 243 243 244 246 247 248 247 247 248 250 252 254 255 256 256 257 258 260 264 269 275 280 284 286 285 284 282 281 283 286 290 294 298 302 305 310 314 318 321 323 325 326 327 328 330 333 336 339 343 350 355 358 2 5 3 357 349 345 347 352 358 6 13 15 16 19 25 47
242 242 245 247 245 241 238 235 232 230 230 231 234 236 240 243 246 248 249 250 250 251 251 251 252 254 255 256 258 259 260 263 265 268 270 274 277 280 281 281 280 279 278 278 279 282 285 288 292 294 297 302 306 310 314 317 318 319 320 322 323 327 332 338 344 348 353 358 3 8 13 15 14 9 2 357 351 346 349 358 6 12 21 33 165
240 246 249 247 243 240 239 240 240 239 238 239 241 244 247 249 251 252 253 253 253 254 255 258 260 262 264 266 268 270 272 275 278 281 283 283 283 281 279 276 275 275 277 279 281 284 285 286 288 290 293 296 299 303 307 309 310 310 311 314 318 323 329 336 343 348 353 358 5 11 15 19 21 21 20 19 15 6 351 334 317 304 296 286 274
238 246 246 240 232 230 233 237 241 243 245 246 247 247 248 249 251 252 254 256 257 260 263 266 269 272 274 276 278 279 280 282 283 283 284 283 283 282 281 279 277 277 279 280 283 284 283 282 282 283 286 289 292 295 297 298 298 299 301 305 310 315 321 327 333 339 346 351 357 3 9 14 18 22 24 25 26 26 23 16 4 342 320 304 293
230 232 232 228 225 226 230 234 239 242 244 244 244 244 245 248 251 254 257 259 261 263 265 268 271 273 274 276 277 278 278 279 279 279 279 280 281 282 283 283 283 282 281 280 280 279 279 279 278 279 282 285 288 289 289 289 290 291 292 295 301 306 311 317 322 327 334 340 345 349 355 360 3 9 16 22 24 24 23 24 25 26 23 16 3
226 227 228 230 231 233 235 238 240 242 243 244 243 244 245 248 251 254 256 258 259 261 263 265 267 269 270 271 273 274 275 275 276 277 277 278 279 280 280 281 282 282 282 281 279 276 274 272 272 274 277 280 282 284 283 283 283 283 283 287 293 298 302 306 312 316 321 326 329 331 335 341 346 351 357 2 7 9 9 7 9 14 21 31 40
231 233 235 237 238 239 240 241 242 243 244 244 244 245 246 248 250 251 253 254 256 258 259 261 263 265 267 269 270 272 273 274 275 277 278 278 279 279 279 279 279 279 279 279 278 275 272 269 268 268 271 274 277 278 279 280 279 278 278 280 285 290 293 296 300 304 308 311 314 315 317 321 328 335 338 340 343 348 350 348 344 341 343 353 10
Height
3166 3168 3171 3174 3176 3179 3181 3184 3186 3188 3190 3191 3193 3196 3198 3200 3202 3203 3204 3206 3208 3209 3211 3212 3213 3214 3215 3216 3217 3217 3218 3219 3220 3221 3222 3223 3224 3225 3226 3227 3228 3229 3230 3231 3232 3232 3233 3234 3235 3236 3236 3237 3237 3238 3238 3238 3239 3239 3239 3238 3238 3238 3238 3237 3237 3236 3236 3235 3235 3234 3233 3233 3232 3231 3231 3230 3229 3227 3226 3225 3223 3222 3221 3220 3219
3163 3166 3169 3171 3174 3177 3179 3182 3184 3186 3187 3188 3190 3193 3195 3197 3199 3201 3202 3204 3206 3208 3209 3211 3212 3213 3214 3215 3216 3217 3217 3218 3219 3220 3221 3222 3222 3223 3224 3226 3227 3228 3229 3229 3230 3231 3232 3232 3233 3234 3234 3235 3236 3236 3237 3237 3237 3238 3238 3237 3237 3237 3237 3236 3236 3236 3235 3234 3234 3233 3232 3232 3231 3231 3230 3229 3228 3226 3225 3224 3222 3221 3220 3219 3218
3163 3165 3167 3169 3172 3174 3177 3179 3181 3183 3185 3186 3188 3190 3192 3195 3197 3198 3201 3202 3204 3206 3208 3209 3211 3212 3213 3214 3215 3216 3217 3217 3218 3219 3220 3221 3221 3222 3223 3224 3225 3226 3227 3228 3229 3229 3230 3231 3231 3232 3232 3233 3233 3234 3235 3235 3235 3236 3236 3236 3236 3236 3236 3235 3235 3235 3234 3233 3233 3232 3231 3231 3230 3229 3228 3227 3226 3225 3224 3223 3221 3220 3218 3218 3217
3162 3163 3165 3167 3170 3172 3174 3176 3178 3180 3182 3184 3186 3188 3190 3192 3194 3196 3198 3200 3202 3204 3206 3207 3209 3210 3211 3212 3213 3214 3215 3216 3217 3218 3219 3220 3220 3221 3221 3222 3223 3224 3225 3226 3226 3227 3228 3229 3229 3230 3230 3230 3231 3232 3233 3233 3234 3234 3234 3235 3235 3234 3234 3234 3233 3233 3232 3232 3231 3230 3230 3229 3228 3227 3227 3225 3224 3223 3222 3221 3220 3219 3218 3217 3216
3160 3161 3163 3165 3167 3169 3171 3174 3175 3177 3179 3181 3184 3186 3188 3189 3191 3194 3196 3198 3200 3202 3203 3205 3206 3208 3209 3211 3212 3213 3214 3215 3216 3217 3217 3218 3219 3219 3220 3221 3221 3222 3223 3224 3224 3225 3225 3226 3227 3228 3228 3228 3229 3230 3230 3231 3231 3232 3232 3233 3233 3233 3232 3232 3231 3231 3230 3230 3229 3229 3228 3227 3227 3226 3225 3224 3223 3222 3221 3220 3218 3218 3217 3216 3214
3158 3160 3161 3163 3165 3167 3169 3171 3173 3175 3177 3179 3181 3184 3185 3187 3189 3191 3193 3196 3198 3200 3201 3203 3204 3206 3207 3209 3210 3211 3212 3213 3214 3215 3216 3216 3217 3218 3218 3219 3220 3220 3221 3221 3222 3222 3223 3224 3225 3225 3225 3226 3227 3228 3228 3229 3229 3229 3229 3230 3230 3230 3230 3229 3229 3228 3227 3227 3227 3226 3225 3225 3224 3224 3223 3222 3221 3220 3219 3218 3217 3216 3215 3214 3212
3157 3158 3159 3160 3162 3165 3167 3169 3172 3174 3175 3177 3179 3181 3183 3185 3186 3189 3191 3193 3195 3197 3199 3200 3202 3203 3205 3206 3208 3209 3210 3211 3212 3213 3214 3214 3215 3216 3216 3217 3218 3218 3219 3219 3219 3220 3221 3221 3222 3223 3223 3224 3225 3226 3226 3226 3226 3226 3227 3227 3227 3227 3227 3226 3226 3225 3224 3224 3224 3223 3223 3222 3221 3221 3221 3220 3219 3218 3217 3216 3215 3214 3212 3211 3210
3155 3157 3158 3158 3160 3162 3165 3168 3170 3172 3174 3175 3177 3178 3180 3182 3184 3186 3189 3190 3192 3194 3196 3198 3200 3201 3202 3204 3205 3207 3207 3208 3209 3211 3212 3212 3213 3214 3214 3215 3215 3216 3216 3217 3217 3217 3218 3219 3219 3220 3221 3222 3222 3223 3223 3224 3223 3223 3223 3224 3223 3223 3223 3223 3223 3222 3221 3220 3220 3220 3220 3219 3219 3218 3218 3217 3216 3216 3215 3213 3212 3212 3210 3209 3208
3153 3155 3156 3157 3158 3161 3164 3166 3168 3170 3172 3173 3174 3176 3177 3179 3182 3184 3186 3188 3190 3192 3194 3196 3197 3199 3200 3201 3202 3204 3204 3205 3207 3208 3209 3210 3211 3212 3212 3212 3212 3213 3214 3214 3215 3215 3215 3216 3217 3218 3218 3219 3219 3220 3220 3220 3220 3220 3220 3220 3219 3219 3219 3219 3219 3218 3217 3216 3216 3217 3216 3216 3216 3215 3215 3214 3214 3213 3212 3211 3210 3209 3208 3206 3205
3152 3153 3155 3156 3158 3160 3162 3164 3166 3168 3169 3170 3172 3174 3175 3177 3179 3181 3183 3185 3188 3190 3192 3193 3194 3196 3197 3198 3200 3200 3201 3202 3204 3206 3207 3208 3208 3209 3209 3210 3210 3210 3210 3211 3212 3212 3213 3213 3214 3215 3215 3216 3216 3216 3216 3216 3216 3216 3216 3216 3216 3215 3215 3215 3214 3214 3213 3212 3212 3212 3212 3211 3212 3212 3211 3211 3211 3210 3209 3207 3207 3206 3204 3203 3202
3150 3151 3153 3156 3157 3159 3160 3162 3164 3166 3167 3169 3170 3172 3173 3175 3176 3178 3180 3183 3185 3187 3189 3190 3192 3193 3195 3196 3197 3198 3199 3200 3202 3203 3204 3205 3206 3206 3207 3207 3207 3207 3207 3208 3209 3210 3210 3211 3211 3212 3212 3213 3213 3213 3214 3213 3213 3213 3213 3213 3212 3212 3211 3211 3211 3210 3210 3209 3209 3208 3207 3207 3209 3209 3208 3208 3207 3206 3205 3204 3202 3201 3200 3199 3199
3147 3149 3151 3154 3156 3157 3159 3161 3162 3164 3165 3167 3168 3170 3171 3172 3174 3176 3178 3180 3183 3185 3186 3187 3189 3191 3192 3193 3194 3195 3197 3198 3200 3201 3202 3203 3203 3204 3204 3205 3205 3205 3205 3206 3206 3207 3207 3208 3208 3209 3209 3210 3210 3211 3211 3210 3210 3210 3210 3209 3208 3208 3207 3207 3207 3206 3206 3205 3205 3204 3203 3204 3205 3204 3204 3204 3203 3201 3200 3199 3198 3197 3196 3194 3194
3145 3147 3149 3151 3153 3156 3157 3159 3160 3162 3163 3165 3166 3167 3168 3170 3171 3173 3175 3178 3180 3182 3183 3185 3186 3188 3189 3191 3192 3193 3195 3196 3198 3199 3200 3201 3202 3202 3202 3203 3203 3203 3204 3204 3204 3205 3205 3205 3205 3206 3207 3207 3207 3207 3207 3207 3207 3207 3206 3205 3204 3204 3203 3203 3202 3202 3202 3201 3200 3199 3200 3200 3200 3200 3200 3199 3197 3196 3195 3194 3193 3193 3191 3190 3190
3142 3144 3147 3149 3151 3153 3155 3157 3158 3160 3161 3163 3164 3165 3166 3167 3169 3171 3173 3175 3177 3179 3181 3182 3184 3185 3187 3188 3190 3191 3193 3194 3196 3197 3198 3199 3200 3200 3200 3201 3201 3201 3202 3202 3202 3203 3203 3203 3203 3203 3204 3204 3204 3204 3204 3204 3204 3203 3202 3201 3200 3200 3199 3198 3198 3198 3197 3196 3195 3195 3195 3195 3194 3194 3195 3193 3191 3190 3190 3189 3188 3187 3186 3185 3185
3140 3142 3144 3147 3149 3151 3152 3154 3156 3157 3159 3160 3161 3162 3164 3165 3167 3169 3171 3172 3174 3176 3178 3180 3181 3183 3184 3186 3187 3189 3190 3192 3194 3195 3196 3197 3198 3198 3198 3198 3198 3198 3199 3199 3200 3200 3200 3200 3200 3201 3201 3201 3201 3201 3200 3200 3200 3199 3198 3197 3196 3196 3194 3193 3194 3194 3193 3191 3190 3190 3190 3190 3188 3189 3188 3186 3185 3185 3185 3184 3182 3181 3179 3179 3179
3138 3140 3141 3144 3146 3148 3150 3151 3153 3154 3156 3157 3158 3160 3161 3163 3165 3167 3168 3170 3172 3174 3176 3177 3179 3180 3181 3183 3184 3185 3188 3190 3191 3193 3194 3195 3196 3196 3195 3196 3196 3196 3196 3197 3197 3197 3197 3197 3197 3197 3197 3197 3197 3197 3197 3196 3195 3194 3193 3193 3192 3191 3190 3190 3189 3189 3188 3187 3186 3185 3185 3185 3183 3182 3182 3181 3180 3180 3179 3178 3175 3174 3174 3174 3173
3137 3138 3139 3141 3143 3145 3147 3148 3149 3151 3153 3154 3155 3157 3159 3161 3163 3165 3166 3167 3169 3171 3173 3175 3176 3178 3179 3180 3181 3182 3184 3187 3188 3190 3191 3192 3192 3192 3192 3192 3192 3192 3193 3193 3193 3193 3194 3194 3194 3194 3194 3194 3194 3193 3193 3192 3191 3190 3189 3189 3188 3186 3185 3185 3185 3184 3184 3183 3181 3180 3180 3179 3177 3176 3176 3175 3175 3175 3173 3170 3169 3170 3169 3167 3167
3135 3136 3137 3138 3139 3141 3143 3145 3147 3148 3150 3151 3152 3155 3157 3159 3161 3162 3163 3165 3167 3169 3171 3172 3174 3175 3176 3177 3178 3179 3180 3182 3184 3185 3187 3188 3189 3189 3189 3189 3189 3189 3189 3190 3190 3190 3190 3190 3190 3190 3190 3190 3189 3189 3188 3187 3187 3186 3185 3184 3183 3182 3181 3180 3180 3179 3179 3178 3175 3174 3173 3173 3171 3170 3170 3169 3169 3168 3165 3163 3163 3164 3162 3160 3161
3133 3134 3135 3136 3137 3138 3139 3141 3143 3145 3147 3148 3150 3151 3154 3156 3158 3159 3161 3162 3164 3166 3168 3169 3170 3172 3173 3174 3176 3176 3177 3178 3179 3180 3181 3183 3183 3184 3184 3184 3184 3185 3185 3186 3186 3186 3186 3186 3186 3186 3186 3185 3185 3185 3184 3183 3182 3181 3180 3179 3178 3177 3177 3176 3174 3174 3173 3171 3169 3168 3167 3166 3165 3164 3164 3163 3162 3161 3159 3158 3158 3156 3154 3154 3155
3131 3132 3133 3134 3135 3136 3137 3138 3140 3141 3144 3146 3147 3149 3150 3152 3154 3156 3158 3160 3161 3163 3164 3166 3167 3168 3170 3171 3172 3173 3174 3175 3176 3176 3177 3178 3178 3179 3179 3178 3179 3180 3180 3180 3180 3181 3181 3181 3181 3181 3181 3181 3181 3180 3179 3178 3177 3176 3175 3173 3172 3173 3173 3170 3169 3168 3166 3164 3163 3161 3161 3160 3159 3158 3157 3157 3156 3155 3154 3154 3153 3151 3149 3148 3148
3129 3130 3131 3132 3132 3133 3134 3136 3137 3138 3140 3142 3144 3146 3147 3149 3150 3152 3154 3156 3157 3159 3161 3162 3163 3165 3166 3167 3168 3169 3170 3171 3172 3172 3173 3174 3174 3175 3174 3174 3175 3175 3175 3175 3175 3175 3175 3175 3176 3176 3176 3176 3175 3175 3174 3173 3172 3170 3169 3168 3167 3167 3166 3164 3163 3162 3159 3158 3156 3155 3154 3154 3153 3152 3151 3151 3150 3150 3149 3149 3149 3147 3144 3142 3140
3127 3128 3129 3130 3130 3131 3132 3133 3134 3136 3137 3139 3141 3142 3144 3145 3147 3148 3150 3151 3153 3155 3157 3158 3160 3161 3162 3163 3164 3165 3166 3167 3167 3168 3169 3170 3170 3170 3170 3171 3171 3171 3171 3171 3171 3171 3171 3171 3171 3171 3171 3170 3170 3170 3169 3168 3167 3165 3164 3163 3162 3161 3159 3157 3156 3155 3153 3151 3149 3147 3147 3147 3146 3145 3145 3144 3145 3145 3145 3144 3143 3141 3138 3135 3133
3125 3126 3127 3128 3129 3129 3130 3131 3132 3133 3134 3136 3137 3138 3140 3142 3143 3145 3146 3147 3149 3151 3153 3154 3156 3157 3158 3159 3160 3161 3162 3162 3163 3164 3165 3165 3166 3166 3166 3167 3167 3167 3167 3167 3167 3167 3167 3167 3167 3167 3166 3165 3165 3164 3164 3163 3162 3161 3160 3159 3157 3156 3154 3151 3150 3148 3146 3144 3141 3140 3140 3140 3139 3138 3138 3138 3139 3139 3138 3136 3134 3132 3129 3125 3123
3123 3124 3125 3126 3127 3128 3128 3129 3130 3131 3132 3133 3134 3135 3137 3138 3140 3141 3143 3144 3145 3147 3149 3150 3152 3153 3154 3155 3156 3157 3158 3158 3159 3160 3161 3161 3161 3162 3162 3162 3162 3162 3162 3163 3162 3162 3162 3162 3162 3162 3161 3160 3160 3159 3159 3158 3156 3156 3155 3154 3153 3151 3149 3147 3145 3143 3140 3138 3135 3132 3132 3133 3132 3131 3131 3132 3133 3132 3131 3128 3125 3122 3118 3114 3114
3120 3121 3122 3124 3125 3125 3126 3127 3128 3128 3129 3130 3131 3132 3134 3135 3136 3137 3139 3140 3142 3143 3145 3146 3147 3149 3150 3151 3152 3153 3153 3154 3155 3156 3156 3157 3157 3157 3157 3157 3157 3157 3158 3158 3158 3158 3158 3158 3157 3157 3156 3155 3155 3154 3153 3153 3151 3150 3150 3149 3148 3146 3145 3143 3141 3138 3135 3132 3129 3126 3125 3125 3124 3123 3124 3127 3128 3126 3124 3121 3117 3113 3108 3105 3107
3117 3118 3119 3120 3122 3122 3123 3124 3125 3126 3127 3127 3128 3129 3130 3132 3133 3134 3135 3136 3138 3139 3141 3142 3143 3145 3146 3147 3148 3149 3149 3150 3151 3152 3152 3153 3153 3153 3153 3153 3153 3153 3153 3154 3153 3153 3152 3152 3151 3151 3151 3150 3149 3149 3148 3147 3146 3145 3145 3144 3142 3141 3140 3138 3135 3132 3129 3126 3123 3120 3118 3118 3117 3115 3115 3119 3121 3119 3117 3114 3110 3106 3102 3099 3099
3113 3115 3116 3117 3118 3119 3120 3121 3122 3123 3123 3124 3124 3125 3127 3128 3130 3131 3132 3133 3134 3135 3136 3137 3139 3140 3142 3143 3144 3144 3145 3146 3147 3148 3148 3148 3148 3148 3148 3148 3148 3148 3148 3148 3148 3147 3147 3147 3146 3146 3146 3145 3145 3144 3143 3142 3142 3141 3140 3139 3137 3136 3135 3133 3130 3126 3123 3120 3117 3114 3112 3112 3111 3106 3105 3109 3111 3110 3108 3106 3103 3099 3095 3093 3091
3110 3112 3113 3114 3115 3117 3118 3118 3119 3119 3119 3120 3122 3123 3124 3125 3126 3128 3129 3129 3130 3131 3132 3133 3135 3136 3138 3139 3139 3140 3141 3142 3142 3143 3143 3143 3144 3144 3144 3144 3143 3143 3143 3143 3142 3142 3142 3142 3141 3141 3140 3140 3140 3139 3138 3137 3137 3136 3135 3134 3133 3131 3129 3127 3124 3121 3118 3114 3111 3107 3105 3105 3103 3098 3095 3097 3098 3098 3099 3097 3094 3091 3088 3085 3082
3106 3108 3110 3111 3112 3113 3114 3115 3115 3115 3116 3117 3119 3120 3121 3122 3123 3124 3125 3126 3127 3127 3128 3129 3131 3132 3133 3134 3134 3135 3136 3137 3137 3138 3139 3139 3139 3139 3139 3139 3139 3139 3138 3138 3137 3137 3137 3137 3136 3136 3135 3135 3134 3134 3133 3132 3131 3130 3129 3128 3126 3125 3123 3121 3118 3115 3112 3108 3104 3101 3098 3096 3094 3090 3086 3084 3085 3087 3089 3087 3085 3082 3079 3075 3072
3102 3104 3106 3107 3108 3109 3110 3110 3111 3112 3113 3115 3116 3117 3118 3119 3120 3120 3121 3122 3123 3123 3124 3125 3127 3128 3128 3129 3130 3131 3131 3132 3132 3133 3134 3134 3134 3134 3134 3134 3134 3134 3134 3133 3133 3133 3132 3132 3132 3131 3131 3130 3129 3128 3128 3126 3125 3124 3123 3122 3120 3118 3116 3114 3111 3108 3104 3100 3097 3094 3090 3087 3086 3083 3079 3075 3074 3076 3078 3077 3074 3071 3067 3064 3062
3098 3100 3101 3103 3104 3105 3106 3107 3108 3109 3110 3111 3113 3114 3114 3115 3116 3117 3117 3118 3118 3119 3120 3121 3122 3123 3123 3124 3125 3125 3126 3126 3127 3128 3128 3129 3129 3129 3130 3130 3130 3130 3130 3129 3129 3129 3129 3128 3128 3127 3127 3126 3125 3124 3123 3121 3120 3118 3117 3115 3114 3112 3109 3106 3103 3100 3096 3092 3089 3086 3082 3079 3077 3075 3071 3067 3064 3064 3065 3064 3062 3058 3055 3052 3051
3095 3096 3097 3098 3100 3101 3103 3104 3105 3106 3107 3108 3109 3110 3110 3111 3112 3113 3113 3114 3114 3115 3116 3117 3118 3118 3119 3120 3120 3121 3121 3122 3122 3123 3124 3124 3125 3125 3125 3126 3126 3126 3126 3126 3125 3125 3125 3124 3124 3123 3122 3121 3120 3119 3117 3116 3114 3112 3110 3108 3107 3105 3102 3099 3096 3092 3088 3084 3081 3077 3074 3070 3067 3065 3062 3058 3054 3052 3051 3050 3049 3046 3043 3040 3038
3092 3093 3094 3095 3096 3098 3099 3101 3101 3102 3103 3103 3104 3105 3106 3107 3108 3109 3109 3110 3110 3111 3112 3113 3114 3114 3115 3116 3116 3117 3118 3118 3119 3120 3120 3121 3121 3122 3122 3122 3122 3122 3122 3122 3122 3121 3121 3120 3119 3118 3117 3116 3115 3114 3112 3110 3108 3106 3104 3101 3099 3096 3093 3090 3087 3083 3080 3076 3072 3068 3065 3062 3058 3055 3052 3049 3046 3041 3038 3037 3036 3033 3031 3028 3026
3089 3090 3091 3092 3093 3094 3096 3097 3098 3098 3099 3099 3100 3101 3102 3103 3104 3105 3106 3106 3107 3107 3108 3109 3110 3110 3111 3112 3113 3114 3114 3115 3116 3116 3117 3117 3118 3118 3118 3118 3119 3119 3119 3118 3118 3118 3117 3116 3115 3114 3113 3112 3110 3109 3107 3105 3103 3100 3097 3094 3091 3088 3085 3082 3078 3075 3072 3068 3065 3061 3057 3053 3050 3046 3042 3040 3037 3032 3028 3026 3024 3021 3018 3016 3015
3085 3087 3088 3089 3090 3091 3092 3093 3094 3094 3095 3096 3097 3097 3098 3099 3100 3101 3102 3103 3104 3104 3105 3106 3107 3107 3108 3109 3110 3111 3111 3112 3113 3113 3113 3114 3114 3114 3115 3115 3115 3115 3115 3115 3114 3113 3112 3111 3110 3109 3108 3106 3105 3103 3101 3099 3096 3093 3090 3087 3084 3081 3078 3075 3072 3068 3065 3062 3058 3054 3050 3046 3042 3037 3033 3029 3027 3023 3019 3015 3012 3009 3006 3004 3004
3082 3083 3084 3085 3086 3087 3088 3089 3090 3091 3091 3092 3093 3094 3095 3096 3098 3099 3100 3101 3101 3102 3103 3103 3104 3105 3105 3106 3107 3108 3108 3109 3109 3109 3110 3110 3110 3110 3110 3111 3111 3111 3110 3110 3109 3108 3107 3106 3105 3104 3103 3101 3099 3097 3095 3093 3090 3088 3085 3081 3078 3075 3072 3069 3065 3062 3060 3056 3053 3049 3044 3040 3035 3030 3025 3020 3017 3013 3009 3004 3000 2997 2997 2997 2998
3078 3079 3080 3082 3083 3083 3084 3085 3086 3087 3088 3089 3090 3091 3092 3093 3095 3097 3098 3099 3099 3100 3100 3101 3101 3102 3102 3103 3104 3104 3105 3105 3105 3106 3106 3106 3106 3107 3107 3107 3106 3106 3106 3105 3104 3103 3102 3101 3100 3099 3097 3096 3094 3092 3090 3087 3085 3082 3079 3076 3073 3069 3066 3062 3059 3056 3054 3051 3047 3043 3038 3034 3029 3024 3018 3013 3008 3003 2998 2994 2990 2988 2989 2990 2991
3075 3076 3077 3078 3079 3080 3081 3082 3083 3084 3085 3087 3088 3089 3090 3091 3093 3094 3095 3096 3096 3097 3097 3098 3098 3098 3099 3100 3100 3101 3101 3101 3102 3102 3102 3102 3102 3102 3102 3102 3102 3101 3101 3100 3100 3098 3097 3096 3095 3094 3092 3091 3089 3087 3084 3082 3079 3076 3073 3071 3067 3064 3060 3057 3054 3051 3048 3044 3041 3037 3032 3027 3023 3018 3012 3006 3001 2995 2989 2985 2981 2979 2979 2981 2982
3073 3073 3073 3074 3075 3076 3078 3079 3081 3082 3083 3085 3086 3086 3087 3089 3090 3090 3091 3092 3093 3093 3094 3094 3094 3095 3095 3096 3097 3097 3097 3097 3097 3098 3098 3098 3098 3098 3098 3098 3097 3097 3097 3096 3095 3094 3093 3092 3090 3089 3087 3085 3083 3081 3079 3076 3074 3071 3068 3065 3061 3058 3054 3051 3047 3044 3041 3037 3034 3030 3026 3022 3017 3012 3006 3000 2994 2987 2981 2978 2975 2974 2973 2974 2975
3070 3071 3071 3071 3072 3073 3074 3075 3077 3078 3079 3080 3081 3082 3084 3085 3086 3087 3087 3088 3089 3089 3090 3090 3090 3091 3091 3092 3092 3093 3093 3093 3094 3094 3094 3094 3094 3094 3094 3094 3094 3093 3092 3092 3091 3089 3088 3087 3085 3083 3081 3079 3078 3076 3073 3071 3068 3065 3062 3059 3056 3052 3049 3045 3041 3037 3034 3030 3026 3022 3019 3016 3011 3006 3001 2996 2990 2983 2978 2974 2972 2970 2969 2969 2970
3067 3068 3068 3068 3069 3070 3071 3072 3073 3074 3075 3076 3078 3079 3080 3081 3082 3083 3083 3084 3084 3084 3084 3085 3086 3087 3087 3088 3089 3090 3090 3091 3091 3091 3091 3091 3091 3091 3090 3090 3090 3089 3088 3087 3086 3084 3083 3081 3080 3078 3076 3075 3073 3071 3068 3066 3063 3060 3057 3054 3051 3048 3044 3041 3036 3032 3028 3024 3019 3016 3013 3010 3005 3001 2998 2994 2989 2982 2976 2972 2970 2968 2966 2965 2965
3064 3065 3065 3066 3067 3067 3068 3069 3069 3070 3071 3073 3075 3076 3077 3078 3078 3079 3080 3080 3080 3081 3081 3082 3083 3085 3086 3087 3087 3088 3088 3088 3088 3088 3088 3087 3087 3086 3086 3086 3086 3085 3084 3082 3081 3079 3078 3077 3075 3073 3072 3070 3068 3066 3064 3062 3059 3057 3054 3051 3048 3044 3041 3038 3034 3029 3025 3021 3017 3012 3009 3005 3001 2997 2992 2988 2984 2978 2971 2967 2965 2964 2963 2963 2963
3062 3062 3062 3063 3064 3065 3066 3067 3067 3068 3069 3070 3071 3073 3074 3075 3076 3076 3077 3077 3078 3079 3080 3082 3083 3084 3084 3084 3084 3084 3084 3084 3083 3083 3083 3083 3083 3083 3082 3082 3081 3080 3079 3077 3076 3075 3074 3073 3071 3070 3068 3066 3064 3062 3061 3058 3056 3054 3051 3048 3045 3042 3039 3036 3033 3029 3025 3021 3017 3012 3007 3004 3000 2996 2991 2985 2980 2976 2972 2968 2966 2964 2963 2964 2963
3059 3060 3061 3061 3061 3062 3063 3064 3066 3066 3067 3068 3069 3070 3071 3072 3073 3074 3075 3076 3077 3078 3079 3080 3081 3081 3080 3080 3080 3079 3079 3079 3079 3079 3080 3080 3079 3079 3078 3077 3076 3075 3075 3074 3073 3072 3070 3069 3067 3066 3064 3062 3061 3059 3057 3056 3054 3052 3049 3047 3044 3041 3038 3035 3032 3029 3025 3022 3018 3013 3009 3006 3003 3000 2996 2991 2987 2984 2981 2978 2975 2973 2971 2971 2970
3056 3057 3058 3059 3060 3060 3061 3062 3064 3065 3065 3066 3066 3067 3068 3069 3070 3072 3073 3073 3074 3075 3076 3076 3076 3076 3076 3076 3076 3076 3076 3076 3077 3077 3077 3077 3076 3075 3074 3073 3072 3071 3071 3070 3069 3068 3066 3065 3063 3062 3061 3059 3058 3056 3055 3053 3052 3050 3048 3046 3043 3040 3038 3035 3031 3028 3025 3022 3019 3015 3012 3009 3006 3003 3000 2997 2995 2993 2991 2988 2986 2984 2983 2981 2980
3052 3054 3055 3057 3058 3059 3059 3060 3062 3063 3064 3064 3065 3065 3066 3067 3068 3069 3069 3070 3070 3071 3071 3072 3072 3072 3073 3073 3073 3073 3073 3073 3073 3073 3073 3072 3072 3071 3070 3069 3068 3067 3066 3065 3064 3063 3062 3061 3059 3058 3058 3057 3055 3054 3052 3051 3049 3048 3046 3044 3042 3039 3036 3033 3031 3028 3025 3022 3020 3017 3014 3012 3009 3005 3002 3000 2998 2998 2997 2995 2993 2992 2991 2989 2988
3049 3050 3052 3053 3055 3056 3057 3058 3060 3061 3062 3063 3064 3064 3064 3065 3065 3065 3066 3066 3067 3067 3067 3068 3068 3069 3069 3069 3069 3069 3069 3068 3068 3067 3067 3067 3067 3067 3066 3066 3065 3063 3062 3061 3059 3059 3058 3057 3056 3055 3054 3053 3052 3051 3050 3049 3047 3046 3044 3042 3040 3038 3035 3032 3030 3028 3025 3023 3020 3018 3016 3013 3010 3007 3004 3002 3001 2999 2999 2998 2997 2996 2995 2993 2992
3046 3047 3048 3050 3051 3053 3054 3055 3057 3058 3059 3060 3061 3061 3062 3062 3062 3063 3063 3063 3063 3064 3064 3064 3064 3065 3065 3065 3065 3064 3064 3064 3064 3063 3063 3062 3062 3061 3061 3060 3060 3059 3058 3057 3056 3055 3054 3054 3053 3052 3051 3050 3049 3048 3047 3046 3045 3043 3042 3040 3038 3036 3034 3032 3030 3028 3025 3023 3021 3019 3017 3014 3012 3009 3007 3005 3003 3001 3000 2999 2998 2997 2996 2994 2993
3045 3046 3047 3048 3049 3050 3052 3052 3054 3055 3056 3057 3058 3058 3059 3059 3060 3060 3060 3060 3061 3061 3061 3061 3061 3061 3061 3061 3061 3061 3060 3060 3060 3059 3059 3058 3057 3056 3055 3055 3054 3054 3053 3053 3052 3051 3050 3050 3049 3049 3048 3047 3046 3045 3044 3043 3042 3041 3039 3037 3036 3034 3033 3032 3030 3027 3025 3023 3021 3019 3017 3015 3012 3010 3008 3006 3005 3003 3002 3000 2999 2998 2997 2995 2994
3044 3045 3045 3046 3047 3048 3049 3050 3051 3052 3053 3054 3054 3055 3056 3057 3057 3057 3058 3058 3058 3058 3058 3058 3057 3057 3057 3057 3057 3057 3056 3056 3055 3055 3055 3054 3053 3052 3052 3051 3050 3049 3048 3048 3047 3047 3046 3046 3045 3045 3044 3043 3042 3041 3041 3040 3039 3038 3036 3035 3033 3032 3031 3030 3029 3027 3025 3023 3021 3019 3017 3015 3013 3011 3009 3008 3006 3005 3004 3002 3001 3000 2999 2997 2996
3042 3042 3043 3044 3045 3046 3047 3047 3048 3049 3050 3051 3051 3052 3053 3053 3054 3054 3054 3054 3054 3054 3054 3054 3054 3054 3053 3053 3053 3053 3052 3052 3051 3051 3051 3050 3049 3049 3048 3047 3046 3045 3044 3043 3043 3042 3042 3041 3041 3041 3040 3039 3038 3037 3037 3037 3036 3035 3033 3032 3031 3030 3029 3028 3027 3026 3024 3023 3021 3019 3017 3015 3013 3011 3009 3008 3007 3006 3005 3004 3002 3001 3000 3000 2999